Temp
63 64 63 63 63 63 63 64 64 65 65 65 65 65 65 64 63 67 67 76 76 73 73 78 77 77 78 73 74 74 62 60 64 64 67 72 71 75 77 76 77 78 75 74 75
63 63 63 63 63 62 62 63 63 64 64 65 65 64 64 64 68 68 76 75 74 73 75 73 71 74 70 70 70 67 61 64 70 70 68 71 72 74 73 73 73 75 73 74 74
62 63 62 62 63 62 62 62 63 63 63 64 64 64 64 66 66 72 75 74 73 73 79 79 77 73 68 71 69 66 61 70 69 70 70 69 71 74 71 61 66 65 68 71 73
62 62 62 61 61 62 61 62 62 62 62 63 64 63 63 68 58 77 72 74 73 77 78 75 73 67 65 62 71 61 67 69 69 68 68 68 71 62 60 58 62 61 62 62 62
61 61 61 60 61 61 61 61 62 62 62 63 63 63 64 63 68 79 71 72 75 75 73 71 68 68 63 67 68 63 68 69 70 67 67 68 66 59 57 59 60 58 56 54 54
61 60 60 60 60 60 60 61 61 61 61 62 63 63 64 60 77 79 77 74 74 74 73 73 71 73 68 67 65 69 69 68 69 68 68 65 62 64 56 59 56 54 51 50 49
60 60 59 59 59 59 60 61 61 61 60 62 63 67 65 67 77 79 76 75 76 76 71 75 75 70 71 64 69 68 61 66 67 67 65 67 53 50 58 57 52 51 50 47 45
60 59 59 59 59 59 59 61 61 61 61 62 63 68 63 72 79 75 76 73 77 76 75 76 74 71 68 70 65 61 63 58 65 63 64 65 45 50 56 53 48 47 46 44 42
59 59 58 58 58 58 58 61 61 61 62 63 64 65 63 68 68 76 77 70 73 73 73 74 71 66 65 60 58 60 57 59 57 65 62 61 46 49 53 50 45 44 43 42 40
58 58 58 58 58 58 58 61 61 62 65 69 70 59 66 64 68 72 75 74 69 68 65 66 64 59 60 58 51 56 56 60 59 60 63 53 44 47 48 46 42 41 41 40 38
58 57 57 57 57 58 60 64 61 59 63 62 64 63 65 68 72 68 72 69 69 66 57 61 54 51 58 61 64 61 60 59 62 62 62 53 45 43 44 43 40 38 37 37 37
57 57 57 57 57 57 59 62 67 66 59 65 63 64 67 70 60 64 72 63 61 55 61 54 50 61 64 63 60 58 56 57 62 62 59 50 41 41 41 38 37 36 35 35 36
57 56 56 57 57 56 61 65 69 69 60 58 63 63 64 66 61 60 66 65 59 56 55 54 57 59 58 56 54 56 55 57 56 56 59 50 39 37 40 41 40 38 38 36 34
56 56 56 56 52 63 58 69 69 68 55 54 56 61 63 66 56 65 69 64 58 55 56 56 61 56 54 54 57 51 61 58 56 52 48 58 46 42 39 36 37 36 36 35 35
55 56 56 55 58 58 62 66 68 65 38 56 56 68 64 60 58 57 65 62 55 54 55 53 52 51 51 55 60 54 57 56 55 52 53 51 47 35 40 35 32 34 34 34 35
55 55 56 56 59 61 62 65 63 49 36 48 56 54 55 58 55 58 60 64 61 55 55 55 57 56 56 56 57 57 55 54 53 52 39 50 49 36 37 32 31 33 33 33 33
55 55 55 62 59 62 63 58 47 42 54 47 49 53 55 51 51 55 52 51 50 44 45 52 52 54 56 52 54 53 50 41 38 37 38 49 49 28 28 29 30 29 30 32 32
55 55 56 61 61 62 60 52 40 50 49 50 51 53 48 50 48 49 49 46 48 48 49 44 38 49 52 52 50 49 51 44 35 38 44 47 41 23 29 32 32 31 31 31 30
55 62 60 59 59 60 55 44 45 46 46 47 49 46 45 47 48 48 49 48 46 46 44 45 43 49 49 51 51 49 43 52 44 49 41 39 22 27 30 29 30 29 29 28 28
62 62 58 59 58 57 50 44 42 43 44 45 45 46 45 46 46 47 44 44 42 45 49 46 40 46 47 51 51 48 51 41 44 33 33 43 34 27 25 26 27 26 25 26 27
60 57 58 61 59 54 44 43 41 44 45 43 44 42 46 43 48 46 44 39 43 43 48 44 42 41 46 38 39 45 44 44 43 42 36 36 28 31 27 26 24 24 25 24 25
58 51 59 61 47 48 43 42 42 40 45 42 43 43 43 42 40 39 37 37 42 42 39 40 39 38 36 39 42 39 36 38 36 37 38 33 23 27 26 24 25 24 24 24 24
55 55 60 58 44 40 40 36 38 39 36 39 37 41 41 36 34 37 35 37 41 39 35 39 36 30 31 35 38 32 30 33 34 32 30 29 22 24 24 23 23 22 22 21 21
54 47 51 50 50 46 39 37 33 39 36 38 37 40 38 35 39 32 31 34 38 38 39 41 33 28 28 27 32 27 27 29 28 25 27 27 13 16 18 17 19 19 19 17 17
49 42 42 45 43 45 44 39 34 32 37 39 36 35 36 32 33 30 32 33 36 37 37 36 26 28 29 31 29 25 24 24 24 18 20 14 14 13 11 11 12 14 17 16 15
47 46 46 41 40 43 39 36 35 31 35 33 34 34 37 31 33 29 32 34 32 35 34 35 25 27 23 27 28 20 20 21 21 16 13 11 10 11 13 15 16 15 14 13 13
46 48 47 38 39 40 35 36 34 35 35 39 37 34 30 31 36 37 38 37 35 33 31 31 26 23 21 25 24 17 13 18 17 16 14 17 10 13 13 13 12 11 12 11 10
MSLP
1012.62 1012.47 1012.11 1012.00 1011.92 1012.05 1011.57 1011.35 1011.40 1011.18 1011.40 1011.42 1011.42 1011.72 1011.61 1011.80 1011.77 1011.67 1010.02 1009.28 1009.32 1010.17 1010.18 1010.30 1010.28 1010.43 1010.14 1009.88 1009.88 1009.63 1008.76 1007.43 1006.94 1007.08 1006.88 1007.64 1007.34 1007.95 1008.36 1008.11 1008.76 1009.51 1010.47 1011.78 1012.64
1012.97 1012.63 1012.42 1012.20 1012.09 1012.04 1011.46 1011.25 1011.19 1011.18 1011.26 1011.17 1011.25 1011.57 1011.60 1011.76 1011.19 1009.95 1008.80 1009.17 1009.53 1009.98 1010.02 1009.90 1009.65 1010.18 1009.77 1009.54 1009.77 1009.30 1008.60 1007.43 1007.71 1007.82 1007.72 1008.09 1008.07 1008.32 1008.57 1009.14 1009.81 1010.57 1012.02 1012.78 1013.18
1013.03 1012.59 1012.42 1012.16 1011.87 1011.59 1011.26 1011.16 1011.00 1011.14 1011.15 1011.21 1011.21 1011.37 1011.58 1011.56 1010.36 1007.93 1007.66 1008.85 1009.52 1009.84 1009.55 1009.43 1009.36 1009.82 1009.26 1009.17 1009.22 1009.11 1008.50 1007.84 1008.45 1008.68 1008.81 1008.77 1008.86 1009.60 1009.90 1011.60 1012.71 1013.27 1013.60 1013.75 1013.99
1013.10 1012.68 1012.41 1012.06 1011.82 1011.49 1011.08 1010.83 1010.86 1010.96 1011.06 1011.16 1011.15 1011.31 1011.56 1011.13 1008.80 1007.58 1008.30 1008.60 1009.22 1009.46 1009.40 1009.10 1009.30 1009.44 1009.06 1008.84 1008.63 1008.81 1008.81 1008.59 1008.84 1009.33 1009.37 1009.42 1010.03 1011.87 1013.36 1015.38 1016.00 1016.29 1016.54 1016.50 1016.55
1013.10 1012.74 1012.50 1012.28 1011.88 1011.41 1011.10 1010.81 1010.71 1010.74 1011.01 1011.07 1011.02 1011.21 1011.42 1010.11 1007.91 1007.52 1007.75 1008.45 1009.11 1009.30 1009.18 1008.96 1009.05 1009.09 1008.61 1008.37 1008.45 1008.75 1008.42 1008.76 1009.15 1009.64 1009.99 1010.62 1011.15 1013.25 1015.31 1016.85 1017.59 1018.15 1018.41 1018.79 1019.36
1013.14 1012.78 1012.48 1012.11 1011.61 1011.21 1010.79 1010.50 1010.47 1010.62 1010.89 1010.94 1010.93 1011.18 1010.79 1008.91 1007.78 1007.66 1007.86 1008.45 1008.77 1009.16 1008.92 1008.96 1008.81 1008.74 1008.41 1008.15 1008.33 1008.07 1008.36 1008.59 1008.93 1009.44 1010.17 1010.92 1012.62 1013.14 1016.83 1017.86 1018.66 1019.30 1020.12 1020.95 1021.55
1013.10 1012.70 1012.22 1011.78 1011.36 1010.94 1010.55 1010.35 1010.30 1010.41 1010.69 1010.81 1010.93 1010.78 1009.79 1008.29 1008.07 1007.98 1008.31 1008.43 1008.80 1008.86 1008.79 1008.92 1009.03 1008.92 1008.39 1008.30 1008.44 1008.44 1008.56 1008.39 1008.58 1009.28 1010.18 1011.22 1013.85 1016.07 1017.54 1018.74 1019.63 1020.56 1021.56 1022.57 1023.39
1012.94 1012.47 1011.99 1011.59 1011.26 1010.80 1010.34 1010.00 1010.03 1010.31 1010.68 1010.80 1010.97 1010.52 1008.74 1008.51 1008.15 1008.29 1008.42 1008.70 1009.14 1009.31 1009.14 1009.31 1009.63 1009.19 1008.77 1008.67 1008.62 1008.36 1008.20 1007.57 1008.10 1009.26 1010.31 1011.20 1014.85 1017.59 1018.63 1019.53 1020.71 1021.84 1022.83 1023.75 1024.69
1012.74 1012.32 1011.93 1011.50 1011.13 1010.74 1010.30 1010.01 1010.09 1010.34 1010.60 1010.81 1010.82 1010.03 1008.28 1008.82 1008.39 1008.07 1008.21 1008.49 1009.05 1009.34 1009.57 1009.69 1009.75 1009.16 1009.19 1008.60 1007.95 1007.60 1006.41 1006.82 1008.11 1008.97 1010.09 1011.81 1015.38 1018.46 1019.77 1020.69 1021.86 1023.09 1024.03 1024.92 1025.73
1012.53 1012.19 1011.86 1011.46 1011.09 1010.81 1010.47 1010.18 1010.23 1010.31 1010.52 1010.25 1009.78 1009.79 1008.31 1007.77 1008.09 1008.32 1008.52 1008.53 1008.76 1009.27 1009.68 1009.64 1009.41 1009.09 1008.74 1008.06 1006.53 1006.03 1006.52 1006.55 1006.97 1009.00 1009.95 1012.54 1016.42 1019.13 1020.88 1021.97 1023.25 1024.44 1025.24 1025.96 1026.65
1012.33 1012.04 1011.70 1011.33 1011.04 1010.85 1010.65 1010.11 1010.27 1009.90 1009.39 1008.01 1007.75 1007.53 1007.51 1008.14 1008.26 1008.38 1008.47 1008.67 1008.69 1008.95 1008.82 1009.22 1009.17 1008.28 1007.82 1007.52 1006.69 1006.56 1006.18 1006.30 1007.19 1008.87 1009.95 1012.76 1016.52 1019.69 1021.80 1023.03 1024.28 1025.44 1026.30 1026.96 1027.50
1012.06 1011.76 1011.44 1011.12 1010.93 1010.87 1010.66 1008.87 1007.63 1007.96 1007.67 1007.81 1007.84 1007.74 1007.74 1007.60 1007.93 1008.41 1008.46 1008.30 1008.46 1008.39 1008.46 1009.36 1008.47 1008.01 1007.65 1007.36 1007.33 1007.38 1006.99 1006.84 1007.29 1008.78 1010.38 1013.49 1017.00 1020.15 1022.31 1024.06 1025.45 1026.37 1027.27 1027.91 1028.32
1011.72 1011.37 1011.12 1010.84 1010.76 1010.66 1009.45 1008.16 1008.11 1007.85 1007.13 1007.52 1007.42 1007.21 1007.40 1007.71 1007.44 1008.04 1008.41 1008.02 1008.09 1008.18 1008.53 1008.03 1008.02 1008.11 1008.09 1008.07 1007.90 1007.58 1007.23 1007.02 1007.67 1009.14 1010.25 1012.79 1016.61 1019.71 1022.49 1024.17 1025.64 1026.90 1027.91 1028.63 1029.15
1011.33 1010.97 1010.77 1010.61 1010.84 1008.93 1008.77 1007.96 1008.14 1008.11 1006.95 1006.92 1007.05 1006.80 1007.29 1007.27 1007.96 1008.42 1008.25 1008.24 1008.43 1008.14 1008.49 1008.34 1008.07 1008.48 1008.50 1008.09 1008.03 1007.53 1007.41 1007.78 1008.15 1009.09 1009.18 1010.83 1013.65 1018.01 1021.55 1024.03 1025.90 1027.32 1028.38 1029.09 1029.63
1010.86 1010.51 1010.39 1010.46 1009.39 1008.60 1008.40 1008.08 1008.17 1008.07 1006.72 1006.43 1006.79 1007.00 1007.02 1007.24 1007.95 1008.75 1008.93 1008.64 1008.17 1008.34 1008.73 1008.23 1008.67 1008.83 1008.58 1008.09 1008.10 1007.99 1008.25 1008.19 1008.54 1008.94 1009.27 1010.71 1013.27 1017.95 1021.26 1023.84 1026.35 1028.03 1029.10 1029.82 1030.32
1010.38 1010.15 1010.05 1009.90 1009.42 1008.73 1008.59 1008.34 1008.36 1007.81 1006.09 1006.31 1006.62 1006.80 1007.04 1007.46 1008.08 1008.63 1008.78 1008.90 1008.93 1008.83 1008.98 1008.70 1009.27 1009.12 1008.67 1009.01 1008.79 1009.02 1008.83 1008.94 1009.09 1009.14 1009.51 1010.31 1013.09 1018.12 1021.64 1024.80 1027.14 1028.83 1029.95 1030.61 1031.04
1009.87 1009.67 1009.72 1009.04 1008.52 1008.83 1008.68 1008.51 1008.04 1006.29 1005.86 1006.37 1006.35 1006.73 1006.83 1007.64 1008.33 1008.38 1008.72 1009.13 1009.07 1009.37 1009.09 1009.09 1009.32 1009.71 1009.68 1009.42 1009.69 1009.48 1008.99 1008.70 1009.05 1009.30 1008.84 1010.52 1013.51 1020.35 1024.29 1026.91 1028.69 1029.92 1030.82 1031.44 1031.86
1009.50 1009.36 1009.28 1009.20 1009.09 1008.91 1008.65 1008.16 1007.04 1005.75 1006.14 1006.93 1006.81 1006.96 1007.34 1008.05 1008.72 1009.10 1009.28 1009.77 1010.39 1010.08 1009.02 1009.14 1009.81 1010.00 1010.29 1009.76 1009.42 1009.49 1008.93 1008.04 1007.63 1007.97 1008.88 1012.05 1015.95 1022.15 1025.98 1028.20 1029.82 1030.81 1031.53 1032.19 1032.60
1009.50 1008.96 1009.03 1009.09 1009.22 1008.97 1008.45 1007.77 1007.17 1007.57 1007.94 1007.63 1007.68 1007.48 1007.95 1008.55 1008.79 1009.38 1009.60 1010.10 1011.29 1011.32 1010.57 1009.88 1010.17 1011.00 1011.18 1011.01 1010.77 1010.01 1009.82 1009.42 1009.04 1009.03 1010.40 1013.12 1019.99 1024.27 1026.84 1028.80 1030.28 1031.40 1032.26 1033.02 1033.51
1008.81 1008.44 1008.84 1009.10 1009.17 1008.94 1008.60 1008.26 1009.25 1009.88 1009.65 1008.94 1007.71 1007.91 1007.72 1008.55 1009.15 1009.63 1010.80 1012.33 1012.59 1012.74 1012.28 1011.40 1011.30 1011.74 1011.98 1011.94 1011.71 1011.32 1011.18 1010.66 1010.49 1010.17 1011.08 1013.21 1018.35 1023.14 1026.85 1029.01 1030.78 1032.02 1033.12 1033.83 1034.29
1008.84 1008.13 1009.04 1009.11 1009.22 1008.86 1008.74 1009.68 1010.68 1011.13 1010.96 1010.34 1009.19 1009.09 1008.69 1009.43 1009.53 1010.54 1011.76 1013.96 1014.08 1013.78 1013.26 1012.98 1012.50 1012.99 1012.92 1013.81 1013.61 1012.82 1012.44 1012.26 1012.12 1011.92 1012.79 1015.26 1021.22 1025.12 1027.75 1030.26 1031.74 1033.06 1034.02 1034.69 1035.15
1008.82 1008.20 1009.11 1009.14 1009.22 1009.32 1009.79 1011.05 1011.91 1012.12 1011.93 1011.57 1011.10 1010.78 1010.50 1011.16 1011.55 1012.52 1013.62 1014.95 1015.62 1015.26 1014.61 1014.82 1014.23 1013.89 1015.14 1016.32 1016.40 1016.23 1015.95 1015.48 1014.80 1014.43 1015.74 1018.75 1024.24 1028.05 1030.11 1031.97 1033.08 1034.04 1034.90 1035.62 1036.16
1008.74 1008.60 1009.11 1009.01 1008.67 1009.91 1011.40 1012.24 1012.89 1012.82 1013.10 1012.79 1012.68 1012.39 1012.48 1012.84 1013.37 1014.26 1015.53 1016.92 1016.67 1016.41 1016.44 1016.11 1015.82 1016.04 1016.79 1017.59 1017.84 1018.20 1018.92 1018.69 1018.43 1018.65 1019.09 1021.86 1026.55 1030.16 1032.04 1033.33 1034.45 1035.14 1035.94 1036.67 1037.20
1009.58 1008.90 1009.31 1009.56 1009.82 1009.66 1011.05 1012.31 1013.36 1013.94 1014.10 1013.97 1013.88 1013.69 1013.66 1014.14 1014.40 1015.48 1016.69 1017.82 1017.85 1017.70 1017.67 1017.25 1017.35 1017.70 1018.01 1018.82 1019.49 1020.40 1021.18 1021.42 1021.40 1021.98 1022.69 1024.90 1028.71 1031.86 1033.63 1034.88 1035.80 1036.50 1037.07 1037.60 1038.03
1010.41 1010.67 1011.10 1010.02 1010.42 1010.62 1011.24 1012.47 1013.41 1014.23 1014.66 1014.61 1014.64 1014.60 1014.52 1015.04 1015.60 1016.48 1017.52 1018.33 1018.75 1018.80 1018.67 1018.59 1018.93 1019.39 1019.98 1020.66 1021.50 1022.63 1023.49 1024.09 1024.45 1025.68 1026.83 1028.83 1030.96 1033.70 1035.67 1036.71 1037.38 1037.86 1038.05 1038.45 1038.82
1011.42 1011.63 1011.85 1011.89 1011.89 1011.60 1012.20 1013.04 1013.75 1014.99 1015.16 1015.08 1015.00 1015.50 1015.45 1016.00 1016.46 1016.97 1017.58 1018.23 1018.79 1019.47 1019.52 1019.84 1020.20 1020.70 1021.52 1022.30 1023.19 1024.75 1026.11 1026.83 1027.62 1028.71 1029.86 1031.49 1033.73 1036.06 1037.09 1037.71 1037.82 1038.34 1038.78 1039.20 1039.62
1013.36 1013.04 1012.21 1012.76 1012.42 1012.42 1013.35 1013.64 1014.37 1015.10 1016.25 1015.72 1015.86 1016.21 1017.03 1018.00 1018.08 1018.31 1018.61 1019.14 1019.62 1019.88 1020.30 1020.58 1021.09 1021.70 1022.39 1023.77 1024.97 1027.05 1029.11 1029.75 1030.61 1031.74 1032.80 1033.80 1035.92 1037.09 1037.74 1038.38 1038.79 1039.19 1039.51 1039.87 1040.35
Wind_Speed
11 11 11 10 9 11 9 8 10 9 10 9 7 7 6 4 4 9 11 3 5 12 10 12 10 9 11 8 4 2 6 8 9 6 5 4 3 3 2 3 3 6 14 11 10
12 11 11 10 9 9 9 8 9 10 8 8 7 7 6 6 10 14 7 4 9 15 16 16 14 13 10 9 6 9 8 9 6 3 5 6 4 5 2 3 8 11 14 11 8
12 13 12 12 11 10 8 8 8 9 9 8 8 7 6 8 7 6 1 13 13 18 15 15 12 14 9 8 9 10 10 4 2 2 2 3 7 9 9 16 17 15 14 13 12
14 13 13 12 12 10 9 7 8 9 9 8 8 6 6 9 3 6 1 15 15 17 14 13 13 13 10 10 12 6 14 4 2 2 1 3 4 23 21 13 17 19 18 21 22
15 14 13 12 11 10 8 7 6 8 9 9 7 8 6 7 7 6 2 16 17 16 17 15 14 14 12 13 8 12 7 6 7 5 3 2 13 16 18 15 16 18 21 22 20
15 14 14 13 12 11 10 7 5 7 9 9 8 8 8 10 3 3 12 17 14 17 16 15 10 12 9 6 11 3 12 8 6 8 4 8 12 6 14 13 17 19 22 21 22
16 15 15 15 14 13 12 8 4 6 8 8 9 9 7 3 2 7 13 10 14 12 14 11 3 10 4 5 3 4 7 11 11 9 6 15 12 12 10 13 17 18 18 20 22
17 16 16 15 15 14 13 9 5 6 7 6 8 8 6 3 2 9 8 10 9 5 5 5 4 10 6 4 5 6 7 10 10 8 8 15 11 10 10 12 16 17 17 18 22
17 17 16 15 15 14 13 3 7 8 7 8 7 9 3 3 7 10 9 12 12 6 4 6 5 6 5 9 7 9 8 11 8 6 7 11 15 9 10 13 15 16 17 17 19
18 17 16 14 13 13 11 2 9 13 7 7 4 6 6 5 7 8 5 14 9 11 7 7 6 7 10 11 6 12 12 6 8 8 7 18 15 11 11 14 15 15 16 17 19
18 17 15 13 11 10 3 6 6 5 8 6 3 2 7 7 8 8 10 10 9 12 8 11 9 12 14 15 11 6 4 7 8 7 10 17 14 10 10 13 14 15 16 17 18
19 17 15 13 9 6 8 6 4 5 5 12 1 2 2 4 6 10 11 10 10 12 10 6 15 15 6 9 12 10 10 10 5 5 3 15 13 11 11 13 14 14 15 16 16
19 17 15 11 7 4 12 9 4 4 5 6 7 5 4 7 3 14 12 5 12 14 14 11 3 3 9 9 11 13 13 11 6 5 8 17 9 11 11 12 14 15 14 15 16
19 16 13 9 3 5 7 12 4 2 6 10 8 6 6 5 4 3 7 5 5 13 10 11 4 6 8 12 13 12 11 12 7 8 9 16 3 11 11 11 12 13 14 15 16
19 15 10 8 4 5 4 4 4 4 6 9 6 5 6 6 12 4 1 4 8 8 6 4 7 10 11 12 9 5 0 8 10 13 13 11 7 9 13 9 10 12 13 14 15
16 12 7 4 4 2 2 3 3 6 7 6 6 9 11 7 3 6 6 2 3 5 6 1 2 4 0 3 5 9 8 7 5 6 9 16 14 9 5 6 8 9 12 13 14
14 8 4 2 1 2 3 3 6 8 4 8 8 11 12 9 6 8 12 10 7 7 11 10 8 3 2 5 3 8 10 5 6 6 8 0 13 12 9 8 8 8 10 12 13
9 4 2 2 4 3 4 5 10 1 5 2 6 12 8 9 3 6 10 8 2 4 3 12 6 9 2 4 4 14 13 6 7 10 7 5 5 8 9 8 8 8 9 11 13
7 3 1 3 3 2 6 10 5 4 3 9 9 12 6 6 4 6 8 6 3 3 5 6 6 5 6 2 3 8 8 3 6 7 5 9 6 5 8 8 6 8 9 11 12
3 2 3 4 1 3 5 3 2 4 4 4 8 4 12 12 9 10 11 2 4 4 4 3 4 1 3 2 4 3 3 4 6 6 11 9 9 7 10 7 5 7 8 10 11
4 3 4 2 2 4 7 4 3 4 4 4 2 3 3 6 6 7 5 4 5 3 4 3 4 6 4 7 6 2 4 3 4 3 5 10 7 8 10 6 4 6 8 9 11
3 3 4 2 2 2 3 3 1 1 5 3 3 6 4 3 4 4 5 6 5 3 2 3 3 3 5 6 7 4 5 4 4 5 1 4 5 4 7 5 5 5 6 9 10
2 2 2 3 4 4 4 4 4 1 5 3 3 4 3 4 5 6 6 4 6 4 3 2 1 4 5 4 2 4 4 3 2 1 4 5 5 4 4 4 5 6 7 8 9
3 3 3 2 3 5 7 5 5 4 4 5 3 2 5 4 6 7 6 4 5 7 7 2 3 4 3 6 3 4 4 5 3 1 3 1 7 8 4 4 6 8 8 8 7
4 3 4 3 3 5 4 5 6 4 3 2 4 5 2 5 5 6 6 6 6 4 4 3 3 3 6 5 5 4 4 5 2 4 3 5 5 6 3 5 6 7 7 7 6
3 1 3 4 3 6 0 3 7 6 4 2 6 5 4 5 4 7 8 3 4 4 3 2 3 3 2 4 2 4 4 4 4 3 3 2 4 3 2 4 5 8 6 5 7
3 0 4 3 2 2 2 5 7 8 6 8 11 13 15 12 13 13 13 9 6 4 4 3 4 3 3 3 2 4 4 3 3 6 5 3 5 3 2 6 8 7 5 5 9
Wind_Direction
350 349 348 339 330 309 291 266 261 241 231 228 227 234 243 227 197 208 230 217 174 166 200 167 181 188 188 174 195 236 239 234 223 226 87 116 186 92 55 85 77 53 47 54 84
346 346 342 338 328 309 298 271 249 247 244 227 218 223 231 213 233 242 221 158 149 167 181 179 178 179 192 183 189 211 230 236 31 36 84 81 44 35 209 112 53 70 77 63 90
343 344 341 339 334 330 310 274 246 238 233 221 210 213 208 210 252 238 46 168 189 180 195 193 173 193 187 178 192 204 243 161 137 51 10 59 84 35 359 51 19 29 38 58 66
340 342 339 339 334 332 326 297 251 228 225 216 202 185 189 216 238 94 153 180 178 186 195 196 183 200 205 200 196 223 232 211 117 97 83 59 51 69 58 57 45 48 52 49 49
339 339 335 332 332 334 326 305 252 221 215 206 195 170 188 215 255 32 171 163 169 188 186 185 189 204 214 203 181 224 220 215 228 201 250 37 74 84 67 59 60 60 55 50 45
336 336 333 332 336 337 336 320 254 212 206 206 185 172 247 242 33 90 132 151 166 185 188 191 203 209 242 217 206 186 230 229 214 224 185 158 102 70 63 67 63 59 55 48 41
334 334 334 335 336 339 337 318 233 199 193 212 181 199 243 270 31 138 141 157 160 187 186 205 273 195 203 195 197 204 242 219 222 214 185 129 63 70 67 70 62 55 53 48 39
333 333 334 335 335 338 338 319 181 176 181 199 184 221 265 57 154 163 152 146 158 156 198 178 248 229 260 86 176 216 229 222 134 165 147 204 118 68 56 69 61 53 47 44 39
332 332 332 332 334 337 339 50 145 157 176 161 179 234 228 134 174 167 170 159 158 129 127 144 194 212 190 215 202 200 246 208 144 183 143 207 124 85 62 65 60 49 44 40 35
331 329 328 329 331 331 330 225 133 133 164 184 275 219 189 186 141 159 168 153 153 142 130 177 195 219 215 209 203 206 223 191 166 150 136 99 110 91 67 67 60 51 45 41 38
328 325 323 323 323 319 258 144 170 164 209 206 198 290 134 108 142 173 153 156 157 183 183 188 203 214 219 224 257 319 213 190 134 139 166 124 112 89 71 66 62 53 44 40 37
325 321 317 314 311 292 272 236 354 8 203 218 283 209 134 179 130 159 184 173 176 192 195 171 226 228 239 238 238 237 238 230 164 164 187 131 110 94 81 74 64 57 49 39 31
322 316 311 307 291 242 218 224 331 295 259 162 204 203 166 200 136 168 189 182 196 200 199 219 85 296 195 207 218 229 235 225 236 154 217 131 144 141 102 87 72 60 55 47 35
319 310 303 299 227 190 208 228 235 279 251 153 191 175 160 194 119 109 204 202 194 209 209 238 170 152 192 221 217 236 220 245 213 203 229 192 206 163 144 98 65 51 45 38 32
316 306 293 246 334 205 51 154 181 221 255 122 139 112 154 183 123 145 177 206 190 170 189 178 183 202 219 225 222 261 175 217 218 222 258 206 248 108 157 119 61 49 42 37 32
313 302 289 191 228 351 305 164 186 218 233 143 134 165 155 166 102 123 174 99 25 165 231 57 63 215 19 97 224 131 132 129 177 216 237 234 214 146 167 49 76 57 42 35 29
313 290 237 265 61 356 185 183 193 236 136 161 168 172 169 157 123 178 174 173 204 190 212 200 208 131 218 173 165 201 179 179 205 204 242 228 201 69 103 82 68 55 44 36 30
322 253 144 31 309 210 202 202 233 238 132 89 156 159 171 155 128 155 163 166 121 260 241 193 200 181 133 252 222 202 213 227 225 219 218 146 216 114 114 104 91 65 52 39 31
317 165 148 7 309 218 220 213 343 48 37 151 155 172 155 164 166 156 194 152 75 350 263 208 138 122 58 342 301 152 221 317 282 260 284 125 101 137 148 123 98 74 53 38 26
263 227 44 354 241 214 230 237 47 21 327 283 189 240 181 171 171 191 172 48 123 32 312 74 163 38 80 240 81 310 13 187 213 243 236 224 131 100 174 138 99 56 37 26 22
255 241 36 92 207 206 222 75 108 41 320 320 137 126 70 147 216 175 147 71 7 36 13 326 275 119 191 24 13 216 207 243 297 291 270 269 106 14 105 90 68 47 31 19 16
280 232 31 234 112 358 133 67 6 29 24 31 49 55 103 122 112 122 128 38 354 335 67 37 356 124 53 91 45 40 19 332 260 226 290 299 112 80 88 71 40 41 25 12 12
259 79 67 261 200 133 126 91 55 60 35 38 84 38 65 105 118 113 96 31 21 48 48 3 135 145 167 190 148 54 39 44 87 22 232 288 108 129 110 83 49 10 16 0 0
260 191 103 78 356 150 147 140 121 51 70 56 95 108 126 94 51 128 116 51 33 70 35 5 63 26 41 60 48 119 81 42 22 222 1 55 130 173 110 34 11 360 356 346 355
356 71 348 135 90 133 116 138 139 121 77 32 92 65 105 120 109 113 108 127 59 26 50 42 90 78 83 57 63 76 42 20 353 49 270 59 88 129 43 343 334 320 325 334 346
356 331 82 87 56 133 94 124 138 120 348 76 108 83 76 84 26 143 129 128 85 80 72 13 110 106 89 52 70 94 44 47 60 79 117 127 118 95 288 279 318 338 336 331 346
17 209 289 25 108 252 36 123 128 132 55 80 120 101 87 82 79 78 74 73 93 105 102 110 130 160 119 105 107 222 37 24 83 60 350 277 71 42 1 335 330 327 327 347 338